Stations météo

Publicité
Pertusato, France (7770): Température de l'air & dewpoint: 13.01.2018 06:00:00 - 19.01.2018 06:00:00 (CET)Pertusato, France (7770): Vitesse du vent & gusts: 13.01.2018 06:00:00 - 19.01.2018 06:00:00 (CET)Pertusato, France (7770): reduced air pressure: 13.01.2018 06:00:00 - 19.01.2018 06:00:00 (CET)Pertusato, France (7770): visibility: 13.01.2018 06:00:00 - 19.01.2018 06:00:00 (CET)Pertusato, France (7770): Quantités de précipitations: 13.01.2018 06:00:00 - 19.01.2018 06:00:00 (CET)
Date & Time tt [°C] td [°C] ff [km/h] ff [knt] fx [km/h] fx [knt] ppp [hPa] vv [km] rr [mm]
19.01.2018 06:00:00 12,5 8,6 50 27 73 39 1013,7 - 0,0
19.01.2018 05:00:00 12,3 8,8 56 31 77 42 1014,1 - 0,0
19.01.2018 04:00:00 12,3 8,8 56 31 82 45 1014,1 - 0,0
19.01.2018 03:00:00 12,5 9,0 57 31 91 49 1014,9 - 0,0
19.01.2018 02:00:00 12,4 8,5 55 30 94 51 1015,3 - 0,0
19.01.2018 01:00:00 12,4 8,3 48 26 89 48 1015,4 - 0,2
19.01.2018 00:00:00 12,7 9,9 35 19 84 45 1015,6 - 0,0
18.01.2018 23:00:00 12,6 9,2 32 18 88 47 1016,2 - 0,0
18.01.2018 22:00:00 12,5 9,5 38 20 77 42 1016,9 - 0,0
18.01.2018 21:00:00 12,3 10,0 30 16 77 42 1017,6 - 0,0
18.01.2018 20:00:00 12,1 9,1 34 18 78 42 1017,6 - 0,0
18.01.2018 19:00:00 12,0 8,8 45 24 81 44 1017,9 15 0,0
18.01.2018 18:00:00 12,2 8,3 58 31 87 47 1018,1 - 0,0
18.01.2018 17:00:00 12,1 8,6 51 28 94 51 1018,3 - 0,0
18.01.2018 16:00:00 12,2 7,7 61 33 87 47 1018,5 - 0,0
18.01.2018 15:00:00 12,0 7,1 61 33 82 45 1018,6 - 0,0
18.01.2018 14:00:00 12,0 7,1 52 28 81 44 1019,2 - 0,0
18.01.2018 13:00:00 12,2 6,2 58 32 84 45 1020,0 15 0,0
18.01.2018 12:00:00 12,3 6,3 65 35 85 46 1019,7 - 0,0
18.01.2018 11:00:00 12,2 5,6 57 31 79 43 1020,2 - 0,0
18.01.2018 10:00:00 11,5 4,9 48 26 70 38 1020,2 15 0,0
18.01.2018 09:00:00 10,6 3,4 48 26 65 35 1019,7 - 0,0
18.01.2018 08:00:00 10,0 3,0 37 20 61 33 1019,5 - 0,0
18.01.2018 07:00:00 9,9 2,0 42 23 61 33 1019,3 15 0,0
18.01.2018 06:00:00 9,9 2,7 33 18 50 27 1019,4 - 0,0
18.01.2018 05:00:00 9,8 1,9 31 17 52 28 1019,9 - 0,0
18.01.2018 04:00:00 9,8 1,4 29 16 46 25 1020,4 - 0,0
18.01.2018 03:00:00 9,9 0,2 31 17 41 22 1020,2 - 0,0
18.01.2018 02:00:00 10,0 0,0 29 16 43 23 1020,4 - 0,0
18.01.2018 01:00:00 10,3 0,3 26 14 52 28 1020,1 - 0,0
18.01.2018 00:00:00 10,5 0,2 34 18 64 35 1019,6 - 0,0
17.01.2018 23:00:00 10,7 0,4 29 16 78 42 1019,6 - 0,0
17.01.2018 22:00:00 11,2 0,0 51 28 85 46 1017,3 - 0,0
17.01.2018 21:00:00 11,5 -1,0 48 26 74 40 1017,4 - 0,0
17.01.2018 20:00:00 12,0 0,4 51 28 92 50 1017,1 - 0,0
17.01.2018 19:00:00 11,9 1,2 54 29 106 57 1015,7 10 0,0
17.01.2018 18:00:00 11,9 0,9 63 34 114 62 1014,5 - 0,0
17.01.2018 17:00:00 11,7 3,2 76 41 141 76 1011,9 - 0,0
17.01.2018 16:00:00 11,8 4,0 95 51 143 77 1007,1 - 0,0
17.01.2018 15:00:00 12,2 4,2 99 54 138 75 1007,1 - 0,0
17.01.2018 14:00:00 12,6 3,3 101 55 141 76 1006,4 - 0,0
17.01.2018 13:00:00 13,0 5,4 97 53 136 74 1007,0 9 0,0
17.01.2018 12:00:00 13,4 5,8 84 46 148 80 1007,1 - 0,0
17.01.2018 11:00:00 13,7 5,8 86 47 136 74 1007,8 - 0,0
17.01.2018 10:00:00 13,9 6,7 88 48 128 69 1005,3 - 0,0
17.01.2018 09:00:00 13,6 9,6 95 51 136 74 1003,0 - 0,0
17.01.2018 08:00:00 13,7 10,3 100 54 138 74 1003,5 - 0,0
17.01.2018 07:00:00 13,8 10,6 81 44 143 77 1002,8 9 0,0
17.01.2018 06:00:00 13,7 10,9 47 26 110 60 1004,0 - 0,0
17.01.2018 05:00:00 13,7 11,0 50 27 112 61 1004,9 - 0,0
17.01.2018 04:00:00 13,6 10,9 48 26 111 60 1005,3 - 0,0
17.01.2018 03:00:00 13,2 11,4 52 28 112 61 1006,0 - 0,0
17.01.2018 02:00:00 13,2 11,3 51 28 117 63 1007,0 - 0,0
17.01.2018 01:00:00 13,2 11,1 46 25 109 59 1008,4 - 0,0
17.01.2018 00:00:00 13,3 10,8 46 25 108 58 1011,2 - 0,0
16.01.2018 23:00:00 13,2 10,7 48 26 113 61 1010,8 - 0,0
16.01.2018 22:00:00 13,2 10,6 45 24 110 60 1010,1 - 0,0
16.01.2018 21:00:00 13,1 11,0 51 28 124 67 1009,3 - 0,0
16.01.2018 20:00:00 13,1 10,8 56 30 134 72 1009,6 - 0,0
16.01.2018 19:00:00 13,1 10,8 64 35 121 65 1008,5 - 0,0
16.01.2018 18:00:00 13,2 10,4 58 32 132 71 1010,4 - 0,0
16.01.2018 17:00:00 13,3 10,5 55 30 112 61 1011,1 - 0,0
16.01.2018 16:00:00 13,4 11,1 50 27 111 60 1011,3 - 0,0
16.01.2018 15:00:00 13,6 10,9 56 31 118 64 1011,8 - 0,0
16.01.2018 14:00:00 13,6 10,6 47 26 112 60 1012,4 - 0,0
16.01.2018 13:00:00 13,5 10,7 49 27 120 65 1012,8 10 0,0
16.01.2018 12:00:00 13,4 9,8 69 37 123 66 1012,9 - 0,0
16.01.2018 11:00:00 13,1 10,1 61 33 111 60 1014,6 - 0,0
16.01.2018 10:00:00 12,9 9,7 46 25 109 59 1014,7 12 0,0
16.01.2018 09:00:00 12,7 8,8 69 37 113 61 1014,9 - 0,0
16.01.2018 08:00:00 12,5 8,2 64 35 118 64 1014,4 - 0,2
16.01.2018 07:00:00 12,4 8,3 63 34 106 57 1014,8 - 0,0
16.01.2018 06:00:00 12,3 7,2 39 21 104 56 1014,7 - 0,0
16.01.2018 05:00:00 12,3 8,2 56 31 113 61 1015,4 - 1,2
16.01.2018 04:00:00 12,2 8,5 56 30 101 55 1015,9 - 0,0
16.01.2018 03:00:00 11,8 7,7 61 33 95 52 1018,1 - 0,0
16.01.2018 02:00:00 11,5 7,4 60 33 90 49 1018,5 - 0,0
16.01.2018 01:00:00 11,2 9,1 49 27 87 47 1020,2 - 0,4
16.01.2018 00:00:00 10,4 8,2 54 29 80 43 1020,0 - 1,2
15.01.2018 23:00:00 10,5 7,9 50 27 72 39 1021,1 - 0,8
15.01.2018 22:00:00 11,5 8,0 25 13 78 42 1020,4 - 0,4
15.01.2018 21:00:00 10,9 6,2 29 16 73 39 1019,6 - 0,0
15.01.2018 20:00:00 12,1 7,6 22 12 57 31 1020,2 - 0,0
15.01.2018 19:00:00 12,0 7,5 25 13 55 30 1020,7 18 0,2
15.01.2018 18:00:00 11,7 7,0 33 18 54 29 1021,2 - 0,0
15.01.2018 17:00:00 12,2 7,7 29 15 48 26 1021,0 - 0,0
15.01.2018 16:00:00 12,9 8,4 16 9 42 23 1020,8 18 0,0
15.01.2018 15:00:00 13,1 8,8 25 14 39 21 1020,8 - 0,0
15.01.2018 14:00:00 12,7 9,3 13 7 31 17 1021,3 - 0,0
15.01.2018 13:00:00 12,5 8,6 8 5 21 12 1022,3 20 0,0
15.01.2018 12:00:00 13,7 7,9 5 3 13 7 1023,0 - 0,0
15.01.2018 11:00:00 13,4 9,1 7 4 13 7 1023,2 - 0,0
15.01.2018 10:00:00 10,4 8,2 10 5 16 9 1023,1 20 0,0
15.01.2018 09:00:00 9,0 7,3 13 7 19 11 1022,6 - 0,0
15.01.2018 08:00:00 7,8 6,4 16 8 21 11 1022,2 - 0,0
15.01.2018 07:00:00 8,2 6,8 16 9 21 12 1021,5 18 0,0
15.01.2018 06:00:00 7,9 6,7 17 9 24 13 1021,0 - 0,0
15.01.2018 05:00:00 8,2 7,1 19 10 26 14 1021,0 - 0,0
15.01.2018 04:00:00 8,1 7,2 21 11 26 14 1021,1 18 0,0
15.01.2018 03:00:00 8,0 7,2 21 11 27 15 1021,3 - 0,0
15.01.2018 02:00:00 7,8 6,9 21 11 29 16 1021,4 - 0,0
15.01.2018 01:00:00 8,0 7,1 22 12 29 15 1021,5 - 0,2
15.01.2018 00:00:00 7,8 6,9 20 11 29 16 1021,5 - 0,0
14.01.2018 23:00:00 8,6 7,7 18 10 29 15 1021,2 - 0,0
14.01.2018 22:00:00 9,0 7,8 20 11 28 15 1021,1 - 1,6
14.01.2018 21:00:00 10,1 7,5 14 7 27 15 1020,7 - 0,0
14.01.2018 20:00:00 10,4 6,9 17 9 24 13 1020,2 - 0,0
14.01.2018 19:00:00 9,9 6,8 16 8 24 13 1020,0 - 0,0
14.01.2018 18:00:00 9,9 6,6 13 7 22 12 1019,6 - 0,0
14.01.2018 17:00:00 10,7 6,6 14 8 26 14 1019,3 - 0,0
14.01.2018 16:00:00 11,3 6,4 16 9 26 14 1018,8 - 0,0
14.01.2018 15:00:00 11,5 5,8 17 9 28 15 1018,6 - 0,0
14.01.2018 14:00:00 12,2 5,1 17 9 27 15 1018,9 - 0,0
14.01.2018 13:00:00 12,7 5,4 16 9 30 16 1019,1 - 0,0
14.01.2018 12:00:00 13,3 6,2 19 11 31 17 1019,6 - 0,0
14.01.2018 11:00:00 11,9 5,7 17 9 27 14 1020,1 - 0,0
14.01.2018 10:00:00 11,0 4,9 16 8 27 14 1020,2 - 0,0
14.01.2018 09:00:00 8,3 4,3 16 8 26 14 1019,8 - 0,0
14.01.2018 08:00:00 7,8 4,0 17 9 24 13 1019,3 - 0,0
14.01.2018 07:00:00 8,4 4,0 17 9 25 14 1019,2 15 0,0
14.01.2018 06:00:00 8,4 4,0 18 10 24 13 1019,0 - 0,0
14.01.2018 05:00:00 8,3 4,1 17 9 23 13 1018,8 - 0,0
14.01.2018 04:00:00 8,4 4,2 17 9 24 13 1019,1 - 0,0
14.01.2018 03:00:00 8,1 4,1 15 8 20 11 1019,4 - 0,0
14.01.2018 02:00:00 7,5 3,2 16 9 22 12 1019,4 - 0,0
14.01.2018 01:00:00 7,1 3,0 16 9 22 12 1019,9 - 0,0
14.01.2018 00:00:00 7,3 3,5 18 10 24 13 1020,1 - 0,0
13.01.2018 23:00:00 7,5 3,7 17 9 22 12 1020,5 - 0,0
13.01.2018 22:00:00 8,0 4,0 15 8 22 12 1020,5 - 0,0
13.01.2018 21:00:00 9,0 4,6 17 9 23 12 1020,2 - 0,0
13.01.2018 20:00:00 8,9 4,3 16 9 23 12 1020,4 - 0,0
13.01.2018 19:00:00 9,4 5,0 15 8 23 12 1020,2 14 0,0
13.01.2018 18:00:00 10,2 5,2 16 9 25 14 1020,0 - 0,0
13.01.2018 17:00:00 10,8 4,9 16 8 26 14 1020,0 - 0,0
13.01.2018 16:00:00 11,5 5,1 16 9 27 14 1019,8 - 0,0
13.01.2018 15:00:00 12,6 5,7 17 9 26 14 1019,7 - 0,0
13.01.2018 14:00:00 14,3 4,6 11 6 21 11 1019,6 - 0,0
13.01.2018 13:00:00 13,4 4,5 16 8 26 14 1019,9 15 0,0
13.01.2018 12:00:00 12,0 4,9 16 9 41 22 1020,5 - 0,0
13.01.2018 11:00:00 12,4 4,4 26 14 41 22 1020,8 - 0,0
13.01.2018 10:00:00 9,9 4,5 23 12 36 19 1020,5 15 0,0
13.01.2018 09:00:00 8,8 4,0 14 8 32 18 1020,3 - 0,0
13.01.2018 08:00:00 8,6 4,6 16 9 31 17 1020,0 - 0,2
13.01.2018 07:00:00 9,0 4,0 16 9 27 15 1019,8 15 0,0
13.01.2018 06:00:00 8,7 4,5 16 8 29 16 1019,7 - 0,0

tt = Température de l'air
td = dewpoint
ff = Vitesse du vent
fx = gusts
ppp = reduced air pressure
vv = visibility
rr = Quantités de précipitations

stations d'obs. à proximité